Date String (YYYY-MM-DD hh:mm:ss) UTC,Instrument flags,absolute air pressure of the measurement (hPa),sample flow rate (lpm),inlet stack bypass flow (lpm),air temperature of the measurement (°C),ambient temperature measured by the external sensor (°C),aerosol sample conditioner tube jacket temperature (°C),OPC LED temperature (°C),internal box temperature (°C),relative humidity of the measurement (%),span deviation,mass concentration of particles derived from Lorenz-Mie calculation of OPC scattering (μg/m³),mass concentration of particles derived from Lorenz-Mie calculation of OPC scattering (μg/m³),mass concentration of particles derived from Lorenz-Mie calculation of OPC scattering (μg/m³)
DateTimeUTC,F1_M11,P_M11,Q1_M11,Q2_M11,T1_M11,T2_M11,T3_M11,T4_M11,T5_M11,U1_M11,ZSPAN_M11,X0_M11,X2_M11,X1_M11
2024-01-04 08:00:00,SystemResetWarning,0825.6,5.00,000.00,021.6,020.8,000.0,030.0,023.0,12.0,0003.1,0014.22,0007.18,0006.43
2024-01-04 08:01:00,SystemResetWarning,0825.6,5.00,000.00,021.6,020.8,000.0,030.0,023.0,12.0,0003.1,0014.43,0007.26,0006.49
2024-01-04 08:02:00,SystemResetWarning,0825.6,5.01,000.00,021.6,020.8,000.0,030.0,023.0,12.0,0003.4,0014.35,0007.35,0006.53
2024-01-04 08:03:00,SystemResetWarning,0825.7,5.00,000.00,021.6,020.8,000.0,030.0,023.0,12.0,0002.7,0014.66,0007.46,0006.58
2024-01-04 08:04:00,SystemResetWarning,0825.7,5.00,000.00,021.6,020.8,000.0,030.0,023.0,12.0,0003.5,0014.37,0007.55,0006.64
2024-01-04 08:05:00,SystemResetWarning,0825.6,5.00,000.00,021.6,020.8,000.0,030.0,023.0,12.0,0003.8,0014.68,0007.61,0006.70
2024-01-04 08:06:00,SystemResetWarning,0825.7,5.00,000.00,021.6,020.8,000.0,030.0,023.0,12.0,0003.7,0014.48,0007.68,0006.75
2024-01-04 08:07:00,SystemResetWarning,0825.6,5.00,000.00,021.6,020.8,000.0,030.0,023.0,12.0,0003.4,0014.00,0007.71,0006.79
2024-01-04 08:08:00,SystemResetWarning,0825.7,5.00,000.00,021.6,020.8,000.0,030.0,023.0,12.0,0003.5,0014.30,0007.77,0006.84
2024-01-04 08:09:00,SystemResetWarning,0825.6,5.00,000.00,021.6,020.8,000.0,030.0,023.0,12.0,0003.5,0013.75,0007.86,0006.88
2024-01-04 08:10:00,SystemResetWarning,0825.6,4.99,000.00,021.6,020.8,000.0,030.0,023.0,12.0,0003.4,0014.51,0007.93,0006.91
2024-01-04 08:11:00,SystemResetWarning,0825.7,5.01,000.00,021.6,020.8,000.0,030.0,023.0,12.0,0003.6,0014.60,0007.92,0006.93
2024-01-04 08:12:00,SystemResetWarning,0825.7,5.00,000.00,021.6,020.8,000.0,030.0,023.0,12.0,0003.9,0014.46,0007.96,0006.94
2024-01-04 08:13:00,SystemResetWarning,0825.7,5.00,000.00,021.6,020.8,000.0,030.0,022.9,12.1,0003.9,0014.38,0007.94,0006.95
2024-01-04 08:14:00,SystemResetWarning,0825.6,5.00,000.00,021.6,020.8,000.0,029.9,022.9,12.1,0003.9,0014.33,0007.87,0006.95
2024-01-04 08:15:00,SystemResetWarning,0825.7,5.00,000.00,021.6,020.8,000.0,029.9,022.8,12.1,0004.0,0014.45,0007.83,0006.94
2024-01-04 08:16:00,SystemResetWarning,0825.6,5.00,000.00,021.5,020.7,000.0,029.9,022.7,12.1,0003.9,0014.17,0007.78,0006.91
2024-01-04 08:17:00,SystemResetWarning,0825.6,5.00,000.00,021.5,020.7,000.0,029.9,022.7,12.2,0003.8,0014.10,0007.77,0006.90
2024-01-04 08:18:00,SystemResetWarning,0825.5,5.00,000.00,021.5,020.7,000.0,029.9,022.6,12.2,0003.7,0014.09,0007.79,0006.90
2024-01-04 08:19:00,SystemResetWarning,0825.5,5.00,000.00,021.5,020.6,000.0,029.9,022.6,12.3,0003.6,0014.15,0007.84,0006.90
2024-01-04 08:20:00,SystemResetWarning,0825.5,5.00,000.00,021.4,020.6,000.0,029.9,022.6,12.3,0003.6,0015.03,0007.83,0006.89
2024-01-04 08:21:00,SystemResetWarning,0825.5,5.00,000.00,021.4,020.6,000.0,029.9,022.6,12.4,0003.7,0014.58,0007.78,0006.89
2024-01-04 08:22:00,SystemResetWarning,0825.4,5.00,000.00,021.4,020.6,000.0,029.9,022.6,12.4,0003.5,0015.17,0007.83,0006.90
2024-01-04 08:23:00,SystemResetWarning,0825.5,5.00,000.00,021.4,020.5,000.0,029.8,022.5,12.4,0003.4,0015.02,0007.79,0006.89
2024-01-04 08:24:00,SystemResetWarning,0825.4,5.00,000.00,021.4,020.5,000.0,029.8,022.5,12.5,0003.4,0015.55,0007.76,0006.88
2024-01-04 08:25:00,SystemResetWarning,0825.4,5.00,000.00,021.3,020.5,000.0,029.8,022.6,12.5,0003.4,0015.75,0007.77,0006.89
2024-01-04 08:26:00,SystemResetWarning,0825.4,5.00,000.00,021.3,020.5,000.0,029.8,022.6,12.5,0003.6,0015.49,0007.78,0006.89
2024-01-04 08:27:00,SystemResetWarning,0825.4,5.00,000.00,021.3,020.5,000.0,029.8,022.6,12.5,0003.7,0016.49,0007.85,0006.89
2024-01-04 08:28:00,SystemResetWarning,0825.3,5.00,000.00,021.3,020.5,000.0,029.8,022.6,12.5,0003.5,0016.53,0007.87,0006.90
2024-01-04 08:29:00,SystemResetWarning,0825.3,5.00,000.00,021.3,020.5,000.0,029.8,022.6,12.5,0003.6,0017.11,0007.85,0006.87
2024-01-04 08:30:00,SystemResetWarning,0825.2,5.00,000.00,021.3,020.5,000.0,029.7,022.6,12.5,0003.6,0017.75,0007.80,0006.85
2024-01-04 08:31:00,SystemResetWarning,0825.3,4.99,000.00,021.3,020.5,000.0,029.7,022.6,12.5,0003.4,0017.18,0007.77,0006.82
2024-01-04 08:32:00,SystemResetWarning,0825.3,5.00,000.00,021.3,020.6,000.0,029.7,022.6,12.6,0003.4,0017.08,0007.80,0006.80
2024-01-04 08:33:00,SystemResetWarning,0825.3,5.00,000.00,021.3,020.6,000.0,029.7,022.6,12.6,0003.7,0016.90,0007.76,0006.77
2024-01-04 08:34:00,SystemResetWarning,0825.4,5.00,000.00,021.3,020.5,000.0,029.7,022.6,12.6,0003.6,0017.13,0007.74,0006.74
2024-01-04 08:35:00,SystemResetWarning,0825.4,5.00,000.00,021.3,020.5,000.0,029.7,022.6,12.6,0003.4,0016.53,0007.74,0006.73
2024-01-04 08:36:00,SystemResetWarning,0825.5,5.00,000.00,021.3,020.5,000.0,029.7,022.5,12.6,0003.5,0016.51,0007.75,0006.72
2024-01-04 08:37:00,SystemResetWarning,0825.5,5.01,000.00,021.3,020.5,000.0,029.7,022.5,12.6,0003.2,0016.48,0007.76,0006.71
2024-01-04 08:38:00,SystemResetWarning,0825.6,5.00,000.00,021.3,020.5,000.0,029.7,022.5,12.6,0002.4,0015.86,0007.72,0006.70
2024-01-04 08:39:00,SystemResetWarning,0825.6,5.00,000.00,021.3,020.4,000.0,029.7,022.5,12.7,0002.5,0016.15,0007.70,0006.68
2024-01-04 08:40:00,SystemResetWarning,0825.6,5.00,000.00,021.2,020.5,000.0,029.7,022.5,12.7,0003.0,0015.94,0007.75,0006.69
2024-01-04 08:41:00,SystemResetWarning,0825.6,5.00,000.00,021.2,020.5,000.0,029.7,022.6,12.7,0003.1,0015.06,0007.72,0006.66
2024-01-04 08:42:00,SystemResetWarning,0825.6,5.00,000.00,021.2,020.5,000.0,029.6,022.6,12.7,0003.6,0014.42,0007.70,0006.66
2024-01-04 08:43:00,SystemResetWarning,0825.6,5.00,000.00,021.2,020.5,000.0,029.6,022.6,12.7,0003.8,0014.26,0007.67,0006.64
2024-01-04 08:44:00,SystemResetWarning,0825.6,5.00,000.00,021.2,020.5,000.0,029.6,022.6,12.6,0003.9,0014.14,0007.68,0006.64
2024-01-04 08:45:00,SystemResetWarning,0825.7,5.00,000.00,021.2,020.5,000.0,029.6,022.6,12.7,0004.0,0014.18,0007.70,0006.63
2024-01-04 08:46:00,SystemResetWarning,0825.7,5.00,000.00,021.2,020.5,000.0,029.6,022.5,12.7,0004.1,0015.31,0007.71,0006.60
2024-01-04 08:47:00,SystemResetWarning,0825.6,5.00,000.00,021.2,020.4,000.0,029.6,022.4,12.7,0003.9,0015.11,0007.69,0006.57
2024-01-04 08:48:00,SystemResetWarning,0825.6,4.99,000.00,021.2,020.4,000.0,029.6,022.4,12.7,0003.9,0015.43,0007.62,0006.54
2024-01-04 08:49:00,SystemResetWarning,0825.6,5.00,000.00,021.2,020.4,000.0,029.6,022.4,12.7,0003.9,0015.12,0007.57,0006.50
2024-01-04 08:50:00,SystemResetWarning,0825.6,5.00,000.00,021.2,020.4,000.0,029.6,022.4,12.8,0004.4,0014.72,0007.56,0006.49
2024-01-04 08:51:00,SystemResetWarning,0825.6,5.00,000.00,021.2,020.4,000.0,029.6,022.4,12.8,0004.3,0014.60,0007.51,0006.46
2024-01-04 08:52:00,SystemResetWarning,0825.7,5.00,000.00,021.1,020.4,000.0,029.6,022.4,12.8,0004.2,0014.74,0007.52,0006.44
2024-01-04 08:53:00,SystemResetWarning,0825.7,5.00,000.00,021.1,020.3,000.0,029.6,022.3,12.8,0003.9,0015.28,0007.48,0006.41
2024-01-04 08:54:00,SystemResetWarning,0825.7,5.00,000.00,021.1,020.3,000.0,029.5,022.4,12.8,0003.7,0015.10,0007.41,0006.38
2024-01-04 08:55:00,SystemResetWarning,0825.7,5.00,000.00,021.1,020.3,000.0,029.5,022.4,12.8,0003.5,0014.89,0007.32,0006.35
2024-01-04 08:56:00,SystemResetWarning,0825.6,5.00,000.00,021.1,020.3,000.0,029.5,022.4,12.8,0003.5,0014.54,0007.32,0006.34
2024-01-04 08:57:00,SystemResetWarning,0825.6,5.00,000.00,021.1,020.3,000.0,029.5,022.4,12.8,0003.1,0013.98,0007.33,0006.34
2024-01-04 08:58:00,SystemResetWarning,0825.6,5.00,000.00,021.1,020.4,000.0,029.5,022.4,12.8,0002.9,0015.03,0007.37,0006.33
2024-01-04 08:59:00,SystemResetWarning,0825.5,5.00,000.00,021.1,020.4,000.0,029.5,022.5,12.8,0003.1,0015.46,0007.38,0006.31
